Regional Weather Roundup
Issued by NWS Grand Forks, ND

Home | Current Version | Previous Version | Text Only | Print | Product List | Glossary On
Versions: 1 2 3 4 5 6 7 8 9 10 11 12 13 14 15 16 17 18 19 20 21 22 23 24 25 26 27 28 29 30 31 32 33 34 35 36 37 38 39 40 41 42 43 44 45 46 47 48 49 50
000
ASUS43 KFGF 231831
RWRFGF
PRAIRIE TO PINES  WEATHER ROUNDUP
NATIONAL WEATHER SERVICE EASTERN NORTH DAKOTA/GRAND FORKS ND
100 PM CDT THU OCT 23 2014

 **SATELLITE DATA USED TO AUGMENT SKY COVER AT AUTOMATED STATIONS**
 *****  WEATHER ACROSS EASTERN NORTH DAKOTA  *****

CITY           SKY/WX    TMP DP  RH WIND       PRES   REMARKS
GRAND FORKS    MOSUNNY   67  39  35 SW10G18   29.84F
6HR MIN TEMP:  40; 6HR MAX TEMP:  67;

GRAND FRKS AFB SUNNY     68  41  37 SW10      29.84F
GRAND FRKS NWS   N/A     68 N/A N/A SW13        N/A
DEVILS LAKE    SUNNY     63  37  39 SW12      29.81F
6HR MIN TEMP:  45; 6HR MAX TEMP:  61;

FARGO          SUNNY     62  46  55 S14       29.90F
WAHPETON ARPT  CLEAR     64  37  36 SW8       29.92F
$$

 ***** WEATHER ACROSS CENTRAL AND WESTERN NORTH DAKOTA  *****

CITY           SKY/WX    TMP DP  RH WIND       PRES   REMARKS
BISMARCK       SUNNY     66  34  30 SW9       29.88F
6HR MIN TEMP:  31; 6HR MAX TEMP:  66;

MINOT          MOSUNNY   63  34  33 S7        29.80F
6HR MIN TEMP:  42; 6HR MAX TEMP:  63;

JAMESTOWN      SUNNY     66  36  32 SW18G25   29.86F
6HR MIN TEMP:  41; 6HR MAX TEMP:  66;

MINOT AFB      MOSUNNY   64  36  36 S6        29.79F
GARRISON         N/A     61  35  37 SW10      29.83F
WILLISTON      MOSUNNY   58  33  39 SW10      29.81F
6HR MIN TEMP:  33; 6HR MAX TEMP:  58;

DICKINSON      SUNNY     67  32  27 SW14      29.85F
6HR MIN TEMP:  35; 6HR MAX TEMP:  67;

HETTINGER      MOSUNNY   67  26  21 S10       29.90F
6HR MIN TEMP:  27; 6HR MAX TEMP:  67;

$$

 *****  OTHER AIRPORT OBSERVATIONS IN OUR AREA  *****

CITY           SKY/WX    TMP DP  RH WIND       PRES   REMARKS
WALHALLA         N/A     64  39  39 W13G18    29.79F
GRAFTON AIRPOR FAIR      64  43  45 SW10      29.82F
VALLEY CITY AR FAIR      66  41  39 SW15      29.87F
CANDO          FAIR      66  36  32 W12G17    29.81F
CAVALIER APRT  FAIR      64  39  39 W12G20    29.80F
GWINNER        CLEAR     64  45  48 S12       29.91F
SHEYENNE NWR     N/A     64  44  47 SW8       29.95
ROLLA          FAIR      61  32  33 SW17G23   29.80F
 ***** THE ABOVE OBSERVATIONS ARE NON NWS ARE NOT QUALITY
       CONTROLLED AND MAY MIS-REPORT RAIN FOR SNOW...
$$

  *****  WEATHER ACROSS NORTHERN MINNESOTA  *****

CITY           SKY/WX    TMP DP  RH WIND       PRES   REMARKS
FLAG ISLAND    PTSUNNY   52  46  82 S10       29.80F
WARROAD        SUNNY     61  48  63 SW14      29.83S
ROSEAU         SUNNY     63  48  59 SW14      29.82F
HALLOCK        SUNNY     63  46  55 SW9       29.81F
THF RVR FALLS  SUNNY     61  45  55 SW9       29.87F
6HR MIN TEMP:  45; 6HR MAX TEMP:  59;

BAUDETTE       SUNNY     64  44  48 SW14      29.83F
6HR MIN TEMP:  47; 6HR MAX TEMP:  64;

WASKISH        SUNNY     63  46  55 SW10      29.87F
CROOKSTON      SUNNY     61  46  59 SW12      29.87F
STEPHEN NDAWN    N/A     63  46  55 SW10        N/A
GREENBUSH NDAW   N/A     61  45  55 SW14        N/A
$$
  *****  WEATHER ACROSS CENTRAL AND WEST MINNESOTA  *****

CITY           SKY/WX    TMP DP  RH WIND       PRES   REMARKS
FOSSTON        SUNNY     61  46  59 SW10      29.89F
BEMIDJI        SUNNY     65  38  37 W12G18    29.90S
PARK RAPIDS    SUNNY     61  47  59 VRB6      29.93F
6HR MIN TEMP:  48; 6HR MAX TEMP:  61;

ELBOW LAKE     FAIR      63  45  51 SW9       29.94F
6HR MIN TEMP:  39; 6HR MAX TEMP:  62;

WADENA         SUNNY     63  45  51 SW8       29.93F
DETROIT LAKES  SUNNY     63  43  48 SW10      29.93S
MOORHEAD       SUNNY     63  48  59 S10       29.90F
FERGUS FALLS   SUNNY     63  43  48 S8        29.94F
MORRIS MN      SUNNY     66  48  52 SW7       29.94F
STAPLES        SUNNY     63  46  55 SW6       29.94F
$$
  *****  WEATHER ELSEWHERE ACROSS MINNESOTA  *****

CITY           SKY/WX    TMP DP  RH WIND       PRES   REMARKS
DULUTH         CLOUDY    52  48  86 SW7       29.95F
6HR MIN TEMP:  48; 6HR MAX TEMP:  52; 6HR PCP: TRACE;

INTRNTL FALLS  SUNNY     62  47  57 SW10G18   29.86F
6HR MIN TEMP:  49; 6HR MAX TEMP:  63;

ELY            CLOUDY    52  46  82 SW6       29.93F
CLOQUET        CLOUDY    52  48  87 SW5       29.96F
WHEATON        SUNNY     66  39  37 SW12      29.95F
BRAINERD       SUNNY     57  50  77 S8        29.96F
6HR MIN TEMP:  50; 6HR MAX TEMP:  57;

HIBBING        CLOUDY    54  49  83 S7        29.94F
6HR MIN TEMP:  48; 6HR MAX TEMP:  54;

ALEXANDRIA     SUNNY     61  46  57 SW9       29.98S
6HR MIN TEMP:  44; 6HR MAX TEMP:  61;

SAINT CLOUD    MOSUNNY   57  51  80 S3        29.98F
6HR MIN TEMP:  52; 6HR MAX TEMP:  58;

MINNEAPOLIS    MOSUNNY   61  51  70 W3        30.00S
6HR MIN TEMP:  52; 6HR MAX TEMP:  62;

$$

  *****  WEATHER ACROSS SOUTH DAKOTA  *****

CITY           SKY/WX    TMP DP  RH WIND       PRES   REMARKS
SIOUX FALLS    MOSUNNY   65  48  54 SW6       30.02F
6HR MIN TEMP:  40; 6HR MAX TEMP:  65;

BROOKINGS      NOT AVBL
WATERTOWN      SUNNY     62  47  57 S8        29.98F
6HR MIN TEMP:  36; 6HR MAX TEMP:  62;

HURON          SUNNY     64  50  60 VRB7      29.97F
6HR MIN TEMP:  34; 6HR MAX TEMP:  64;

SISSETON         N/A     70  36  28 W13       29.92F
ABERDEEN       SUNNY     61  47  59 S8        29.94F
6HR MIN TEMP:  31; 6HR MAX TEMP:  61;

MITCHELL       SUNNY     68  49  50 S9        30.00F
PIERRE         SUNNY     61  38  42 S5        29.94F
6HR MIN TEMP:  33; 6HR MAX TEMP:  61;

MOBRIDGE       SUNNY     62  39  42 S8        29.90F
RAPID CITY     PTSUNNY   63  30  28 SE6       29.95F
6HR MIN TEMP:  36; 6HR MAX TEMP:  63;

$$

  *****  SOME WEATHER IN NEARBY STATES *****

CITY           SKY/WX    TMP DP  RH WIND       PRES   REMARKS
GLASGOW MT     MOSUNNY   59  37  44 S6        29.78F
6HR MIN TEMP:  36; 6HR MAX TEMP:  59;

GREAT FALLS MT CLOUDY    58  38  47 SW22G29   29.82F
6HR MIN TEMP:  49; 6HR MAX TEMP:  58;

CHEYENNE WY    PTSUNNY   62  31  31 SW12      30.17F
6HR MIN TEMP:  37; 6HR MAX TEMP:  64;

SCOTTSBLUFF NE CLOUDY    63  41  44 CALM      30.07F
6HR MIN TEMP:  30; 6HR MAX TEMP:  63;

OMAHA NE       SUNNY     64  55  72 SW5       30.06F
6HR MIN TEMP:  59; 6HR MAX TEMP:  65;

DES MOINES IA  CLOUDY    67  58  72 W7        30.04S
6HR MIN TEMP:  54; 6HR MAX TEMP:  67; 6HR PCP:  0.03;

DAVENPORT IA   CLOUDY    57  43  59 S14       30.09F
6HR MIN TEMP:  42; 6HR MAX TEMP:  57;

CHICAGO IL     PTSUNNY   58  41  53 S12       30.14F
6HR MIN TEMP:  36; 6HR MAX TEMP:  58;

EAU CLAIRE WI  CLOUDY    50  48  93 SW5       30.01F
6HR MIN TEMP:  47; 6HR MAX TEMP:  50; 6HR PCP:  0.17;

LA CROSSE WI   CLOUDY    50  46  86 S14G20    30.05F
6HR MIN TEMP:  49; 6HR MAX TEMP:  50; 6HR PCP:  0.12;

$$

  *****  SOME NATIONAL WEATHER *****

CITY           SKY/WX    TMP DP  RH WIND       PRES   REMARKS
LA GUARDIA NY  LGT RAIN  52  46  82 N18G26    29.69F
6HR MIN TEMP:  51; 6HR MAX TEMP:  52; 6HR PCP:  0.11;

RALEIGH NC     SUNNY     66  42  41 W8        29.97F
6HR MIN TEMP:  43; 6HR MAX TEMP:  66;

ATLANTA GA     MOSUNNY   67  43  41 W8        30.08F
6HR MIN TEMP:  43; 6HR MAX TEMP:  68;

NEW ORLEANS LA MOSUNNY   72  47  40 NE13      30.08F
6HR MIN TEMP:  61; 6HR MAX TEMP:  72;

OKLAHOMA CITY  MOSUNNY   74  58  57 SW9       30.12F
6HR MIN TEMP:  61; 6HR MAX TEMP:  74;

ALBUQUERQUE NM MOSUNNY   65  46  50 SW5       30.30S
6HR MIN TEMP:  51; 6HR MAX TEMP:  65;

SALT LAKE CITY MOSUNNY   65  31  28 SE7       30.12F
6HR MIN TEMP:  44; 6HR MAX TEMP:  65;




USA.gov is the U.S. government's official web portal to all federal, state and local government web resources and services.